• In United Kingdom
  • List of Countries
  • For 7 days
  • Water Temperature
  • Satellite Maps
  • Weather Map
  • Weather Widgets
  • user-avatar
    Login

    Hourly Weather Muyinga

    Today, 20 September, Thursday

    Time Temperature Precipitation Wind Pressure Humidity
    00:00 +19°C° 0 mm 0 mps 629 mmHg 59%
    01:00 +20°C° 0 mm 1 mps 628 mmHg 61%
    02:00 +20°C° 0 mm 1 mps 628 mmHg 62%
    03:00 +19°C° 0 mm 1 mps 628 mmHg 64%
    04:00 +17°C° 0 mm 0 mps 628 mmHg 66%
    05:00 +16°C° 0 mm 0 mps 628 mmHg 67%
    06:00 +20°C° 0 mm 1 mps 629 mmHg 61%
    07:00 +22°C° 0 mm 1 mps 630 mmHg 55%
    08:00 +24°C° 0 mm 1 mps 631 mmHg 48%
    09:00 +26°C° 0 mm 2 mps 631 mmHg 43%
    10:00 +28°C° 0 mm 2 mps 632 mmHg 38%
    11:00 +29°C° 0 mm 3 mps 632 mmHg 33%
    12:00 +29°C° 0 mm 3 mps 632 mmHg 33%
    13:00 +29°C° 0 mm 3 mps 631 mmHg 33%
    14:00 +29°C° 0 mm 3 mps 630 mmHg 34%
    15:00 +28°C° 0 mm 2 mps 630 mmHg 34%
    16:00 +28°C° 0 mm 2 mps 630 mmHg 34%
    17:00 +27°C° 0 mm 2 mps 629 mmHg 35%
    18:00 +26°C° 0 mm 2 mps 629 mmHg 39%
    19:00 +25°C° 0 mm 2 mps 629 mmHg 43%
    20:00 +24°C° 0 mm 2 mps 629 mmHg 47%
    21:00 +23°C° 0 mm 1 mps 629 mmHg 50%
    22:00 +22°C° 0 mm 1 mps 629 mmHg 52%
    23:00 +20°C° 0 mm 0 mps 629 mmHg 55%

    Tomorrow, 21 September, Friday

    Time Temperature Precipitation Wind Pressure Humidity
    00:00 +19°C° 0 mm 0 mps 629 mmHg 58%
    01:00 +20°C° 0 mm 1 mps 628 mmHg 60%
    02:00 +19°C° 0 mm 1 mps 627 mmHg 63%
    03:00 +17°C° 0 mm 0 mps 627 mmHg 63%
    04:00 +17°C° 0 mm 0 mps 627 mmHg 64%
    05:00 +17°C° 0 mm 0 mps 627 mmHg 64%
    06:00 +21°C° 0 mm 1 mps 628 mmHg 58%
    07:00 +21°C° 0 mm 2 mps 629 mmHg 51%
    08:00 +24°C° 0 mm 3 mps 630 mmHg 45%
    09:00 +26°C° 0 mm 3 mps 631 mmHg 40%
    10:00 +28°C° 0 mm 3 mps 632 mmHg 35%
    11:00 +30°C° 0 mm 3 mps 632 mmHg 31%
    12:00 +29°C° 0 mm 3 mps 631 mmHg 31%
    13:00 +29°C° 0 mm 2 mps 630 mmHg 32%
    14:00 +29°C° 0 mm 2 mps 629 mmHg 32%
    15:00 +29°C° 0 mm 2 mps 629 mmHg 32%
    16:00 +28°C° 0 mm 2 mps 629 mmHg 33%
    17:00 +28°C° 0 mm 2 mps 628 mmHg 33%
    18:00 +27°C° 0 mm 1 mps 628 mmHg 36%
    19:00 +25°C° 0 mm 1 mps 628 mmHg 40%
    20:00 +21°C° 0 mm 0 mps 628 mmHg 44%
    21:00 +21°C° 0 mm 0 mps 629 mmHg 46%
    22:00 +20°C° 0 mm 0 mps 629 mmHg 47%
    23:00 +22°C° 0 mm 1 mps 629 mmHg 49%

    Day after tomorrow, 22 September, Saturday

    Time Temperature Precipitation Wind Pressure Humidity
    00:00 +21°C° 0 mm 1 mps 628 mmHg 50%
    01:00 +21°C° 0 mm 1 mps 627 mmHg 52%
    02:00 +20°C° 0 mm 1 mps 627 mmHg 53%
    03:00 +20°C° 0 mm 1 mps 627 mmHg 53%
    04:00 +20°C° 0 mm 1 mps 627 mmHg 52%
    05:00 +20°C° 0 mm 1 mps 627 mmHg 52%
    06:00 +21°C° 0 mm 2 mps 628 mmHg 48%
    07:00 +22°C° 0 mm 3 mps 630 mmHg 44%
    08:00 +25°C° 0 mm 4 mps 631 mmHg 40%
    09:00 +27°C° 0 mm 4 mps 631 mmHg 36%
    10:00 +29°C° 0 mm 3 mps 631 mmHg 33%
    11:00 +30°C° 0 mm 3 mps 632 mmHg 29%
    12:00 +30°C° 0 mm 3 mps 631 mmHg 28%
    13:00 +31°C° 0 mm 2 mps 630 mmHg 28%
    14:00 +31°C° 0 mm 2 mps 629 mmHg 27%
    15:00 +30°C° 0 mm 2 mps 629 mmHg 28%
    16:00 +30°C° 0 mm 1 mps 629 mmHg 29%
    17:00 +29°C° 0 mm 1 mps 628 mmHg 29%
    18:00 +28°C° 0 mm 1 mps 628 mmHg 33%
    19:00 +26°C° 0 mm 1 mps 629 mmHg 36%
    20:00 +22°C° 0 mm 0 mps 629 mmHg 39%
    21:00 +22°C° 0 mm 0 mps 628 mmHg 41%
    22:00 +21°C° 0 mm 0 mps 628 mmHg 43%
    23:00 +21°C° 0 mm 0 mps 628 mmHg 45%

    23 September, Sunday

    Time Temperature Precipitation Wind Pressure Humidity
    00:00 +20°C° 0 mm 0 mps 628 mmHg 46%
    01:00 +19°C° 0 mm 0 mps 627 mmHg 48%
    02:00 +19°C° 0 mm 0 mps 626 mmHg 50%
    03:00 +19°C° 0 mm 0 mps 627 mmHg 50%
    04:00 +19°C° 0 mm 0 mps 627 mmHg 50%
    05:00 +21°C° 0 mm 1 mps 628 mmHg 50%
    06:00 +22°C° 0 mm 1 mps 629 mmHg 46%
    07:00 +23°C° 0 mm 2 mps 630 mmHg 42%
    08:00 +25°C° 0 mm 3 mps 631 mmHg 37%
    09:00 +27°C° 0 mm 3 mps 631 mmHg 34%
    10:00 +28°C° 0 mm 3 mps 632 mmHg 31%
    11:00 +30°C° 0 mm 3 mps 632 mmHg 28%
    12:00 +30°C° 0 mm 2 mps 631 mmHg 28%
    13:00 +30°C° 0 mm 2 mps 630 mmHg 28%
    14:00 +30°C° 0 mm 2 mps 629 mmHg 27%
    15:00 +30°C° 0 mm 2 mps 629 mmHg 28%
    16:00 +29°C° 0 mm 2 mps 629 mmHg 29%
    17:00 +29°C° 0 mm 2 mps 629 mmHg 30%
    18:00 +27°C° 0 mm 1 mps 629 mmHg 33%
    19:00 +26°C° 0 mm 1 mps 629 mmHg 37%
    20:00 +22°C° 0 mm 0 mps 629 mmHg 40%
    21:00 +22°C° 0 mm 0 mps 629 mmHg 42%
    22:00 +21°C° 0 mm 0 mps 629 mmHg 43%
    23:00 +21°C° 0 mm 0 mps 628 mmHg 44%

    24 September, Monday

    Time Temperature Precipitation Wind Pressure Humidity
    00:00 +20°C° 0 mm 0 mps 628 mmHg 46%
    01:00 +19°C° 0 mm 0 mps 627 mmHg 49%
    02:00 +19°C° 0 mm 0 mps 627 mmHg 51%
    03:00 +20°C° 0 mm 1 mps 627 mmHg 52%
    04:00 +20°C° 0 mm 1 mps 627 mmHg 53%
    05:00 +19°C° 0 mm 1 mps 627 mmHg 54%
    06:00 +21°C° 0 mm 1 mps 629 mmHg 51%
    07:00 +23°C° 0 mm 1 mps 630 mmHg 47%
    08:00 +25°C° 0 mm 1 mps 631 mmHg 43%
    09:00 +26°C° 0 mm 1 mps 631 mmHg 40%
    10:00 +28°C° 0 mm 2 mps 631 mmHg 37%
    11:00 +29°C° 0 mm 2 mps 631 mmHg 34%
    12:00 +30°C° 0 mm 2 mps 630 mmHg 33%
    13:00 +30°C° 0 mm 2 mps 630 mmHg 33%
    14:00 +30°C° 0 mm 2 mps 629 mmHg 32%
    15:00 +30°C° 0 mm 2 mps 629 mmHg 33%
    16:00 +29°C° 0 mm 2 mps 629 mmHg 33%
    17:00 +29°C° 0 mm 2 mps 629 mmHg 34%
    18:00 +27°C° 0 mm 1 mps 629 mmHg 39%
    19:00 +25°C° 0 mm 1 mps 629 mmHg 45%
    20:00 +21°C° 0 mm 0 mps 629 mmHg 50%
    21:00 +20°C° 0 mm 0 mps 629 mmHg 51%
    22:00 +20°C° 0 mm 0 mps 629 mmHg 53%
    23:00 +22°C° 0 mm 1 mps 628 mmHg 54%

    25 September, Tuesday

    Time Temperature Precipitation Wind Pressure Humidity
    00:00 +21°C° 0 mm 1 mps 628 mmHg 57%
    01:00 +20°C° 0 mm 1 mps 627 mmHg 59%
    02:00 +20°C° 0 mm 1 mps 626 mmHg 61%
    03:00 +20°C° 0 mm 1 mps 627 mmHg 63%
    04:00 +19°C° 0 mm 1 mps 627 mmHg 64%
    05:00 +17°C° 0 mm 0 mps 627 mmHg 65%
    06:00 +21°C° 0 mm 1 mps 628 mmHg 58%
    07:00 +23°C° 0 mm 1 mps 630 mmHg 52%
    08:00 +25°C° 0 mm 1 mps 631 mmHg 45%
    09:00 +26°C° 0 mm 1 mps 631 mmHg 42%
    10:00 +27°C° 0 mm 2 mps 631 mmHg 39%
    11:00 +28°C° 0 mm 2 mps 631 mmHg 36%
    12:00 +28°C° 0 mm 2 mps 630 mmHg 36%
    13:00 +29°C° 0 mm 2 mps 630 mmHg 35%
    14:00 +29°C° 0 mm 2 mps 629 mmHg 34%
    15:00 +28°C° 0 mm 2 mps 629 mmHg 35%
    16:00 +28°C° 0 mm 2 mps 629 mmHg 36%
    17:00 +27°C° 0 mm 2 mps 629 mmHg 36%
    18:00 +26°C° 0 mm 2 mps 629 mmHg 40%
    19:00 +25°C° 0 mm 1 mps 629 mmHg 43%
    20:00 +22°C° 0 mm 0 mps 629 mmHg 46%
    21:00 +21°C° 0 mm 0 mps 629 mmHg 48%
    22:00 +23°C° 0 mm 1 mps 629 mmHg 50%
    23:00 +22°C° 0 mm 1 mps 629 mmHg 52%
    Show more